START_TIME,STEP,MOV.,M15,t_acc.,M20,t_acc.
1979-07-12 15:00:44.280 ,1,0,0.,24.0,0.,24.0
1979-07-12 15:01:08.280 ,2,1,0.,24.0,0.,24.0
1979-07-12 15:01:32.280 ,2,0,0.,24.0,0.,24.0
1979-07-12 15:01:56.280 ,3,1,0.,24.0,0.,24.0
1979-07-12 15:02:20.280 ,3,0,0.,24.0,0.,24.0
1979-07-12 15:02:44.280 ,4,1,0.,24.0,0.,24.0
1979-07-12 15:03:08.280 ,4,0,0.,24.0,0.,24.0
1979-07-12 15:03:32.280 ,5,1,0.,24.0,0.,24.0
1979-07-12 15:03:56.280 ,5,0,0.,24.0,0.,24.0
1979-07-12 15:04:20.280 ,6,1,0.,24.0,0.,24.0
1979-07-12 15:04:44.280 ,6,0,0.,24.0,0.,24.0
1979-07-12 15:05:08.280 ,7,1,0.,24.0,0.,24.0
1979-07-12 15:05:32.280 ,7,0,0.,24.0,0.,24.0
1979-07-12 15:05:56.280 ,7,1,0.,24.0,0.,24.0
1979-07-12 15:06:20.280 ,7,0,0.,24.0,0.,24.0
1979-07-12 15:06:44.280 ,6,1,0.,24.0,0.,24.0
1979-07-12 15:07:08.280 ,6,0,0.,24.0,0.,24.0
1979-07-12 15:07:32.280 ,5,1,0.,24.0,0.,24.0
1979-07-12 15:07:56.280 ,5,0,1.,24.0,0.,24.0
1979-07-12 15:08:20.280 ,4,1,0.,24.0,0.,24.0
1979-07-12 15:08:44.280 ,0,0,,0,,0
1979-07-12 15:09:08.280 ,3,1,0.,24.0,0.,24.0
1979-07-12 15:09:32.280 ,3,0,0.,24.0,0.,24.0
1979-07-12 15:09:56.280 ,2,1,0.,24.0,0.,24.0
1979-07-12 15:10:20.280 ,2,0,0.,24.0,0.,24.0
1979-07-12 15:10:44.280 ,1,1,0.,24.0,0.,24.0
1979-07-12 15:11:08.280 ,1,0,0.,24.0,0.,24.0
1979-07-12 15:11:32.280 ,0,1,1.,24.0,0.,24.0
1979-07-12 15:11:56.280 ,0,0,0.,24.0,0.,24.0
1979-07-12 15:12:20.280 ,0,1,0.,24.0,0.,24.0
1979-07-12 15:12:44.280 ,0,0,0.,24.0,0.,24.0
1979-07-12 15:13:08.280 ,1,1,0.,24.0,0.,24.0
1979-07-12 15:13:32.280 ,1,0,0.,24.0,0.,24.0
1979-07-12 15:13:56.280 ,2,1,0.,24.0,0.,24.0
1979-07-12 15:14:20.280 ,2,0,1.,24.0,0.,24.0
1979-07-12 15:14:44.280 ,3,1,0.,24.0,0.,24.0
1979-07-12 15:15:08.280 ,3,0,0.,24.0,0.,24.0
1979-07-12 15:15:32.280 ,4,1,1.,24.0,0.,24.0
1979-07-12 15:15:56.280 ,4,0,0.,24.0,0.,24.0
1979-07-12 15:16:20.280 ,5,1,0.,24.0,0.,24.0
1979-07-12 15:16:44.280 ,5,0,0.,24.0,0.,24.0
1979-07-12 15:17:08.280 ,6,1,0.,24.0,0.,24.0
1979-07-12 15:17:32.280 ,6,0,0.,24.0,0.,24.0
1979-07-12 15:17:56.280 ,7,1,0.,24.0,0.,24.0
1979-07-12 15:18:20.280 ,7,0,0.,24.0,0.,24.0
1979-07-12 15:18:44.280 ,7,1,0.,24.0,0.,24.0
1979-07-12 15:19:08.280 ,7,0,0.,24.0,0.,24.0
1979-07-12 15:19:32.280 ,6,1,0.,24.0,0.,24.0
1979-07-12 15:19:56.280 ,6,0,1.,24.0,0.,24.0
1979-07-12 15:20:20.280 ,5,1,0.,24.0,0.,24.0
1979-07-12 15:20:44.280 ,5,0,1.,24.0,0.,24.0
1979-07-12 15:21:56.280 ,0,0,0.,24.0,0.,24.0
1979-07-12 15:22:20.280 ,0,0,1.,24.0,0.,24.0
1979-07-12 15:22:44.280 ,2,1,0.,24.0,0.,24.0
1979-07-12 15:23:08.280 ,2,0,0.,24.0,0.,24.0
1979-07-12 15:23:32.280 ,1,1,0.,24.0,0.,24.0
1979-07-12 15:23:56.280 ,1,0,1.,24.0,0.,24.0
1979-07-12 15:24:20.280 ,0,1,0.,24.0,0.,24.0
1979-07-12 15:24:44.280 ,0,0,0.,24.0,0.,24.0
1979-07-12 15:25:08.280 ,0,1,0.,24.0,0.,24.0
1979-07-12 15:25:32.280 ,0,0,0.,24.0,0.,24.0
1979-07-12 15:25:56.280 ,1,1,0.,24.0,0.,24.0
1979-07-12 15:26:20.280 ,1,0,0.,24.0,0.,24.0
1979-07-12 15:26:44.280 ,2,1,0.,24.0,0.,24.0
1979-07-12 15:27:08.280 ,2,0,0.,24.0,0.,24.0
1979-07-12 15:27:32.280 ,3,1,0.,24.0,0.,24.0
1979-07-12 15:27:56.280 ,3,0,0.,24.0,0.,24.0
1979-07-12 15:28:20.280 ,4,1,0.,24.0,0.,24.0
1979-07-12 15:28:44.280 ,4,0,0.,24.0,0.,24.0
1979-07-12 15:29:08.280 ,5,1,1.,24.0,0.,24.0
1979-07-12 15:29:32.280 ,5,0,0.,24.0,0.,24.0
1979-07-12 15:29:56.280 ,6,1,0.,24.0,0.,24.0
1979-07-12 15:30:20.280 ,6,0,0.,24.0,0.,24.0
1979-07-12 15:30:44.280 ,7,0,0.,24.0,0.,24.0
1979-07-12 15:31:08.280 ,7,0,0.,24.0,0.,24.0
1979-07-12 15:31:32.280 ,3,1,0.,24.0,0.,24.0
1979-07-12 15:31:56.280 ,0,1,0.,24.0,0.,24.0
1979-07-12 15:32:20.280 ,4,1,0.,24.0,0.,24.0
1979-07-12 15:32:44.280 ,7,1,0.,24.0,0.,24.0
1979-07-12 15:33:08.280 ,3,1,0.,24.0,0.,24.0
1979-07-12 15:33:32.280 ,0,1,0.,24.0,0.,24.0
1979-07-12 15:33:56.280 ,4,1,0.,24.0,0.,24.0
1979-07-12 15:34:20.280 ,7,1,0.,24.0,0.,24.0
1979-07-12 15:34:44.280 ,3,1,0.,24.0,0.,24.0
1979-07-12 15:35:08.280 ,0,1,0.,24.0,0.,24.0
1979-07-12 15:35:32.280 ,4,1,0.,24.0,0.,24.0
1979-07-12 15:35:56.280 ,7,1,0.,24.0,0.,24.0
1979-07-12 15:36:20.280 ,3,1,0.,24.0,0.,24.0
1979-07-12 15:36:44.280 ,0,1,0.,24.0,0.,24.0
1979-07-12 15:37:08.280 ,4,1,0.,24.0,0.,24.0
1979-07-12 15:37:32.280 ,0,0,0.,24.0,0.,24.0
1979-07-12 15:38:32.280 ,0,0,,0,,0
1979-07-12 15:38:44.280 ,0,0,0.,24.0,0.,24.0
1979-07-12 15:39:08.280 ,7,1,0.,24.0,0.,24.0
1979-07-12 15:39:32.280 ,3,1,0.,24.0,0.,24.0
1979-07-12 15:39:56.280 ,0,1,0.,24.0,0.,24.0
1979-07-12 15:40:20.280 ,4,1,0.,24.0,0.,24.0
1979-07-12 15:40:44.280 ,7,1,0.,24.0,0.,24.0
1979-07-12 15:41:08.280 ,3,1,1.,24.0,0.,24.0
1979-07-12 15:41:32.280 ,0,1,0.,24.0,0.,24.0
1979-07-12 15:41:56.280 ,0,0,0.,24.0,0.,24.0
1979-07-12 15:42:20.280 ,0,0,0.,24.0,0.,24.0
1979-07-12 15:42:44.280 ,5,1,1.,24.0,0.,24.0
1979-07-12 15:43:08.280 ,5,0,0.,24.0,0.,24.0
1979-07-12 15:43:32.280 ,4,1,0.,24.0,0.,24.0
1979-07-12 15:43:56.280 ,4,0,0.,24.0,0.,24.0
1979-07-12 15:44:20.280 ,3,1,0.,24.0,0.,24.0
1979-07-12 15:44:44.280 ,3,0,0.,24.0,0.,24.0
1979-07-12 15:45:08.280 ,2,1,0.,24.0,0.,24.0
1979-07-12 15:45:32.280 ,2,0,0.,24.0,0.,24.0
1979-07-12 15:45:56.280 ,1,1,1.,24.0,0.,24.0
1979-07-12 15:46:20.280 ,1,0,0.,24.0,0.,24.0
1979-07-12 15:46:44.280 ,0,1,0.,24.0,0.,24.0
1979-07-12 15:47:08.280 ,0,0,0.,24.0,0.,24.0
1979-07-12 15:47:32.280 ,0,1,0.,24.0,0.,24.0
1979-07-12 15:47:56.280 ,0,0,0.,24.0,0.,24.0
1979-07-12 15:48:20.280 ,1,1,0.,24.0,0.,24.0
1979-07-12 15:48:44.280 ,1,0,0.,24.0,0.,24.0
1979-07-12 15:49:08.280 ,2,1,0.,24.0,0.,24.0
1979-07-12 15:49:32.280 ,2,0,0.,24.0,0.,24.0
1979-07-12 15:49:56.280 ,3,1,0.,24.0,0.,24.0
1979-07-12 15:50:20.280 ,3,0,0.,24.0,0.,24.0
1979-07-12 15:50:44.280 ,4,1,0.,24.0,0.,24.0
1979-07-12 15:51:08.280 ,4,0,0.,24.0,0.,24.0
1979-07-12 15:51:32.280 ,5,1,0.,24.0,0.,24.0
1979-07-12 15:51:56.280 ,5,0,0.,24.0,0.,24.0
1979-07-12 15:52:20.280 ,6,1,0.,24.0,0.,24.0
1979-07-12 15:52:44.280 ,6,0,0.,24.0,0.,24.0
1979-07-12 15:53:08.280 ,7,1,0.,24.0,0.,24.0
1979-07-12 15:53:32.280 ,7,0,0.,24.0,0.,24.0
1979-07-12 15:53:56.280 ,7,1,0.,24.0,0.,24.0
1979-07-12 15:54:20.280 ,7,0,0.,24.0,0.,24.0
1979-07-12 15:54:44.280 ,6,1,0.,24.0,0.,24.0
1979-07-12 15:55:08.280 ,6,0,0.,24.0,0.,24.0
1979-07-12 15:55:32.280 ,5,1,1.,24.0,0.,24.0
1979-07-12 15:55:56.280 ,5,0,0.,24.0,0.,24.0
1979-07-12 15:56:20.280 ,4,1,0.,24.0,0.,24.0
1979-07-12 15:56:44.280 ,4,0,0.,24.0,0.,24.0
1979-07-12 15:57:08.280 ,3,1,0.,24.0,0.,24.0
1979-07-12 15:57:32.280 ,3,0,0.,24.0,0.,24.0
1979-07-12 15:57:56.280 ,2,1,0.,24.0,0.,24.0
1979-07-12 15:58:20.280 ,2,0,0.,24.0,0.,24.0
1979-07-12 15:58:44.270 ,1,1,1.,24.0,0.,24.0
1979-07-12 15:59:08.270 ,1,0,0.,24.0,0.,24.0
1979-07-12 15:59:32.270 ,0,1,0.,24.0,0.,24.0
1979-07-12 15:59:56.270 ,0,0,0.,24.0,0.,24.0
1979-07-12 16:00:20.280 ,0,1,0.,24.0,0.,24.0
1979-07-12 16:00:44.280 ,0,0,0.,24.0,0.,24.0
1979-07-12 16:01:08.280 ,1,1,0.,24.0,0.,24.0
1979-07-12 16:01:32.280 ,1,0,0.,24.0,0.,24.0
1979-07-12 16:01:56.280 ,2,1,0.,24.0,0.,24.0
1979-07-12 16:02:20.280 ,2,0,0.,24.0,0.,24.0
1979-07-12 16:02:44.280 ,3,1,1.,24.0,0.,24.0
1979-07-12 16:03:08.280 ,3,0,0.,24.0,0.,24.0
1979-07-12 16:03:32.280 ,4,1,0.,24.0,0.,24.0
1979-07-12 16:03:56.280 ,4,0,0.,24.0,0.,24.0
1979-07-12 16:04:20.270 ,5,1,0.,24.0,0.,24.0
1979-07-12 16:04:44.280 ,5,0,0.,24.0,0.,24.0
1979-07-12 16:05:08.270 ,6,1,0.,24.0,0.,24.0
1979-07-12 16:05:32.280 ,6,0,0.,24.0,0.,24.0
1979-07-12 16:05:56.280 ,7,1,0.,24.0,0.,24.0
1979-07-12 16:06:20.270 ,7,0,0.,24.0,0.,24.0
1979-07-12 16:06:44.280 ,7,1,0.,24.0,0.,24.0
1979-07-12 16:07:08.270 ,7,0,0.,24.0,0.,24.0
1979-07-12 16:07:32.280 ,6,1,0.,24.0,0.,24.0
1979-07-12 16:07:56.280 ,6,0,0.,24.0,0.,24.0
1979-07-12 16:08:20.270 ,5,1,0.,24.0,0.,24.0
1979-07-12 16:08:44.280 ,5,0,0.,24.0,0.,24.0
1979-07-12 16:09:08.280 ,4,1,0.,24.0,0.,24.0
1979-07-12 16:09:32.280 ,4,0,0.,24.0,0.,24.0
1979-07-12 16:09:56.280 ,3,1,0.,24.0,0.,24.0
1979-07-12 16:10:20.280 ,3,0,0.,24.0,0.,24.0
1979-07-12 16:10:44.280 ,2,1,0.,24.0,0.,24.0
1979-07-12 16:11:08.280 ,2,0,0.,24.0,0.,24.0
1979-07-12 16:11:32.280 ,1,1,0.,24.0,0.,24.0
1979-07-12 16:11:56.280 ,1,0,0.,24.0,0.,24.0
1979-07-12 16:12:20.280 ,0,1,0.,24.0,0.,24.0
1979-07-12 16:12:44.280 ,0,0,0.,24.0,0.,24.0
1979-07-12 16:13:08.280 ,0,1,0.,24.0,0.,24.0
1979-07-12 16:13:32.280 ,0,0,0.,24.0,0.,24.0
1979-07-12 16:13:56.280 ,1,1,0.,24.0,0.,24.0
1979-07-12 16:14:20.280 ,1,0,0.,24.0,0.,24.0
1979-07-12 16:14:44.280 ,2,1,0.,24.0,0.,24.0
1979-07-12 16:15:08.280 ,2,0,0.,24.0,0.,24.0
1979-07-12 16:15:32.280 ,3,1,0.,24.0,0.,24.0
1979-07-12 16:15:56.280 ,3,0,0.,24.0,0.,24.0
1979-07-12 16:16:20.280 ,4,1,0.,24.0,0.,24.0
1979-07-12 16:16:44.280 ,4,0,0.,24.0,0.,24.0
1979-07-12 16:17:08.280 ,5,1,0.,24.0,0.,24.0
1979-07-12 16:17:32.280 ,5,0,0.,24.0,0.,24.0
1979-07-12 16:17:56.280 ,6,1,0.,24.0,0.,24.0
1979-07-12 16:18:20.280 ,6,0,0.,24.0,0.,24.0
1979-07-12 16:18:44.280 ,7,0,0.,24.0,0.,24.0
1979-07-12 16:19:08.280 ,7,0,0.,24.0,0.,24.0
1979-07-12 16:19:32.280 ,3,1,0.,24.0,0.,24.0
1979-07-12 16:19:56.280 ,0,1,0.,24.0,0.,24.0
1979-07-12 16:20:20.280 ,4,1,0.,24.0,0.,24.0
1979-07-12 16:20:44.280 ,7,1,0.,24.0,0.,24.0
1979-07-12 16:21:08.280 ,3,1,0.,24.0,0.,24.0
1979-07-12 16:21:32.280 ,0,1,0.,24.0,0.,24.0
1979-07-12 16:21:56.280 ,4,1,0.,24.0,0.,24.0
1979-07-12 16:22:20.280 ,7,1,0.,24.0,0.,24.0
1979-07-12 16:22:44.280 ,3,1,0.,24.0,0.,24.0
1979-07-12 16:23:08.280 ,0,1,0.,24.0,0.,24.0
1979-07-12 16:23:32.280 ,4,1,0.,24.0,0.,24.0
1979-07-12 16:23:56.280 ,7,1,0.,24.0,0.,24.0
1979-07-12 16:24:20.280 ,3,1,0.,24.0,0.,24.0
1979-07-12 16:24:44.280 ,0,1,0.,24.0,0.,24.0
1979-07-12 16:25:08.280 ,4,1,0.,24.0,0.,24.0
1979-07-12 16:25:32.280 ,7,1,0.,24.0,0.,24.0
1979-07-12 16:25:56.270 ,3,1,0.,24.0,0.,24.0
1979-07-12 16:26:20.270 ,0,1,0.,24.0,0.,24.0
1979-07-12 16:26:44.270 ,4,1,0.,24.0,0.,24.0
1979-07-12 16:27:08.270 ,7,1,0.,24.0,0.,24.0
1979-07-12 16:27:32.270 ,3,1,0.,24.0,0.,24.0
1979-07-12 16:27:56.270 ,0,1,0.,24.0,0.,24.0
1979-07-12 16:28:20.270 ,4,1,0.,24.0,0.,24.0
1979-07-12 16:28:44.270 ,7,1,0.,24.0,0.,24.0
1979-07-12 16:29:08.270 ,3,1,0.,24.0,0.,24.0
1979-07-12 16:29:32.270 ,0,1,0.,24.0,0.,24.0
1979-07-12 16:29:56.270 ,0,0,0.,24.0,0.,24.0
1979-07-12 16:30:20.270 ,0,0,0.,24.0,0.,24.0
1979-07-12 16:30:44.270 ,5,1,0.,24.0,0.,24.0
1979-07-12 16:31:08.270 ,5,0,0.,24.0,0.,24.0
1979-07-12 16:31:32.270 ,4,1,0.,24.0,0.,24.0
1979-07-12 16:31:56.270 ,4,0,0.,24.0,0.,24.0
1979-07-12 16:32:20.270 ,3,1,1.,24.0,0.,24.0
1979-07-12 16:32:44.270 ,3,0,0.,24.0,0.,24.0
1979-07-12 16:33:08.270 ,2,1,0.,24.0,0.,24.0
1979-07-12 16:33:32.270 ,2,0,0.,24.0,0.,24.0
1979-07-12 16:33:56.270 ,1,1,1.,24.0,0.,24.0
1979-07-12 16:34:20.270 ,1,0,0.,24.0,0.,24.0
1979-07-12 16:34:44.270 ,0,1,0.,24.0,0.,24.0
1979-07-12 16:35:08.270 ,0,0,0.,24.0,0.,24.0
1979-07-12 16:35:32.270 ,0,1,0.,24.0,0.,24.0
1979-07-12 16:35:56.270 ,0,0,0.,24.0,0.,24.0
1979-07-12 16:36:20.270 ,1,1,0.,24.0,0.,24.0
1979-07-12 16:36:44.270 ,1,0,0.,24.0,0.,24.0
1979-07-12 16:37:08.270 ,2,1,1.,24.0,0.,24.0
1979-07-12 16:37:32.270 ,2,0,0.,24.0,0.,24.0
1979-07-12 16:37:56.270 ,3,1,0.,24.0,0.,24.0
1979-07-12 16:38:20.270 ,3,0,0.,24.0,0.,24.0
1979-07-12 16:38:44.270 ,4,1,1.,24.0,0.,24.0
1979-07-12 16:39:08.270 ,4,0,0.,24.0,0.,24.0
1979-07-12 16:39:32.270 ,5,1,0.,24.0,0.,24.0
1979-07-12 16:39:56.270 ,5,0,0.,24.0,0.,24.0
1979-07-12 16:40:20.270 ,6,1,0.,24.0,0.,24.0
1979-07-12 16:40:44.270 ,6,0,0.,24.0,0.,24.0
1979-07-12 16:41:08.270 ,7,1,0.,24.0,0.,24.0
1979-07-12 16:41:32.270 ,7,0,0.,24.0,0.,24.0
1979-07-12 16:41:56.270 ,7,1,0.,24.0,0.,24.0
1979-07-12 16:42:20.270 ,7,0,0.,24.0,0.,24.0
1979-07-12 16:42:44.270 ,6,1,0.,24.0,0.,24.0
1979-07-12 16:43:08.270 ,6,0,0.,24.0,0.,24.0
1979-07-12 16:43:32.270 ,5,1,1.,24.0,0.,24.0
1979-07-12 16:43:56.270 ,5,0,0.,24.0,0.,24.0
1979-07-12 16:44:20.270 ,4,1,0.,24.0,0.,24.0
1979-07-12 16:44:44.270 ,4,0,0.,24.0,0.,24.0
1979-07-12 16:45:08.270 ,3,1,0.,24.0,0.,24.0
1979-07-12 16:45:32.270 ,3,0,0.,24.0,0.,24.0
1979-07-12 16:45:56.270 ,2,1,0.,24.0,0.,24.0
1979-07-12 16:46:20.270 ,2,0,0.,24.0,0.,24.0
1979-07-12 16:46:44.270 ,1,1,0.,24.0,0.,24.0
1979-07-12 16:47:08.270 ,1,0,1.,24.0,0.,24.0
1979-07-12 16:47:32.270 ,0,1,0.,24.0,0.,24.0
1979-07-12 16:47:56.270 ,0,0,0.,24.0,0.,24.0
1979-07-12 16:48:20.270 ,0,1,0.,24.0,0.,24.0
1979-07-12 16:48:44.270 ,0,0,0.,24.0,0.,24.0
1979-07-12 16:49:08.270 ,1,1,0.,24.0,0.,24.0
1979-07-12 16:49:32.270 ,1,0,1.,24.0,0.,24.0
1979-07-12 16:49:56.270 ,2,1,0.,24.0,0.,24.0
1979-07-12 16:50:20.270 ,2,0,0.,24.0,0.,24.0
1979-07-12 16:50:44.270 ,3,1,0.,24.0,0.,24.0
1979-07-12 16:51:08.270 ,3,0,0.,24.0,0.,24.0
1979-07-12 16:51:32.270 ,4,1,0.,24.0,0.,24.0
1979-07-12 16:51:56.270 ,4,0,0.,24.0,0.,24.0
1979-07-12 16:52:20.270 ,5,1,0.,24.0,0.,24.0
1979-07-12 16:52:44.270 ,5,0,0.,24.0,0.,24.0
1979-07-12 16:53:08.270 ,6,1,0.,24.0,0.,24.0
1979-07-12 16:53:32.270 ,6,0,0.,24.0,0.,24.0
1979-07-12 16:53:56.270 ,7,1,1.,24.0,0.,24.0
1979-07-12 16:54:20.270 ,7,0,0.,24.0,0.,24.0
1979-07-12 16:54:44.270 ,7,1,0.,24.0,0.,24.0
1979-07-12 16:55:08.270 ,7,0,0.,24.0,0.,24.0
1979-07-12 16:55:32.270 ,6,1,0.,24.0,0.,24.0
1979-07-12 16:55:56.270 ,6,0,0.,24.0,0.,24.0
1979-07-12 16:56:20.270 ,5,1,0.,24.0,0.,24.0
1979-07-12 16:56:44.270 ,5,0,0.,24.0,0.,24.0
1979-07-12 16:57:08.270 ,4,1,0.,24.0,0.,24.0
1979-07-12 16:57:32.270 ,4,0,0.,24.0,0.,24.0
1979-07-12 16:57:56.270 ,3,1,0.,24.0,0.,24.0
1979-07-12 16:58:20.270 ,3,0,0.,24.0,0.,24.0
1979-07-12 16:58:44.270 ,2,1,0.,24.0,0.,24.0
1979-07-12 16:59:08.270 ,2,0,0.,24.0,0.,24.0
1979-07-12 16:59:32.270 ,1,1,0.,24.0,0.,24.0
1979-07-12 16:59:56.270 ,1,0,0.,24.0,0.,24.0
1979-07-12 17:00:20.270 ,0,1,0.,24.0,0.,24.0
1979-07-12 17:00:44.270 ,0,0,0.,24.0,0.,24.0
1979-07-12 17:01:08.270 ,0,1,0.,24.0,0.,24.0
1979-07-12 17:01:32.270 ,0,0,0.,24.0,0.,24.0
1979-07-12 17:01:56.270 ,1,1,0.,24.0,0.,24.0
1979-07-12 17:02:20.270 ,1,0,0.,24.0,0.,24.0
1979-07-12 17:02:44.270 ,2,1,0.,24.0,0.,24.0
1979-07-12 17:03:08.270 ,2,0,0.,24.0,0.,24.0
1979-07-12 17:03:32.270 ,3,1,0.,24.0,0.,24.0
1979-07-12 17:03:56.270 ,3,0,0.,24.0,0.,24.0
1979-07-12 17:04:20.270 ,4,1,0.,24.0,0.,24.0
1979-07-12 17:04:44.270 ,4,0,0.,24.0,0.,24.0
1979-07-12 17:05:08.270 ,5,1,0.,24.0,0.,24.0
1979-07-12 17:05:32.270 ,5,0,0.,24.0,0.,24.0
1979-07-12 17:05:56.270 ,6,1,0.,24.0,0.,24.0
1979-07-12 17:06:20.270 ,6,0,0.,24.0,0.,24.0
1979-07-12 17:06:44.270 ,7,0,0.,24.0,0.,24.0
1979-07-12 17:07:08.270 ,7,0,0.,24.0,0.,24.0
1979-07-12 17:07:32.270 ,3,1,1.,24.0,0.,24.0
1979-07-12 17:07:56.270 ,0,1,0.,24.0,0.,24.0
1979-07-12 17:08:20.270 ,4,1,0.,24.0,0.,24.0
1979-07-12 17:08:44.270 ,7,1,1.,24.0,0.,24.0
1979-07-12 17:09:08.270 ,3,1,0.,24.0,0.,24.0
1979-07-12 17:09:32.270 ,0,1,0.,24.0,0.,24.0
1979-07-12 17:09:56.270 ,4,1,1.,24.0,0.,24.0
1979-07-12 17:10:20.270 ,7,1,0.,24.0,0.,24.0
1979-07-12 17:10:44.270 ,3,1,1.,24.0,0.,24.0
1979-07-12 17:11:08.270 ,0,1,0.,24.0,0.,24.0
1979-07-12 17:11:32.270 ,4,1,0.,24.0,0.,24.0
1979-07-12 17:11:56.270 ,7,1,1.,24.0,0.,24.0
1979-07-12 17:12:20.270 ,3,1,1.,24.0,0.,24.0
1979-07-12 17:12:44.270 ,0,1,1.,24.0,0.,24.0
1979-07-12 17:13:08.270 ,4,1,0.,24.0,0.,24.0
1979-07-12 17:13:32.270 ,7,1,0.,24.0,0.,24.0
1979-07-12 17:13:56.270 ,3,1,0.,24.0,0.,24.0
1979-07-12 17:14:20.270 ,0,1,0.,24.0,0.,24.0
1979-07-12 17:14:44.270 ,4,1,0.,24.0,0.,24.0
1979-07-12 17:15:08.270 ,7,1,0.,24.0,0.,24.0
1979-07-12 17:15:32.270 ,3,1,0.,24.0,0.,24.0
1979-07-12 17:15:56.270 ,0,1,1.,24.0,0.,24.0
1979-07-12 17:16:20.270 ,4,1,0.,24.0,0.,24.0
1979-07-12 17:16:44.270 ,7,1,0.,24.0,0.,24.0
1979-07-12 17:17:08.270 ,3,1,0.,24.0,0.,24.0
1979-07-12 17:17:32.270 ,0,1,0.,24.0,0.,24.0
1979-07-12 17:17:56.270 ,0,0,0.,24.0,0.,24.0
1979-07-12 17:18:20.270 ,0,0,0.,24.0,0.,24.0
1979-07-12 17:18:44.270 ,5,1,0.,24.0,0.,24.0
1979-07-12 17:19:08.270 ,5,0,0.,24.0,0.,24.0
1979-07-12 17:19:32.270 ,4,1,0.,24.0,0.,24.0
1979-07-12 17:19:56.270 ,4,0,1.,24.0,0.,24.0
1979-07-12 17:20:20.270 ,3,1,0.,24.0,0.,24.0
1979-07-12 17:20:44.270 ,3,0,0.,24.0,0.,24.0
1979-07-12 17:21:08.270 ,2,1,0.,24.0,0.,24.0
1979-07-12 17:21:32.270 ,2,0,0.,24.0,0.,24.0
1979-07-12 17:21:56.270 ,1,1,0.,24.0,0.,24.0
1979-07-12 17:22:20.270 ,1,0,0.,24.0,0.,24.0
1979-07-12 17:22:44.270 ,0,1,1.,24.0,0.,24.0
1979-07-12 17:23:08.270 ,0,0,0.,24.0,0.,24.0
1979-07-12 17:23:32.270 ,0,1,0.,24.0,0.,24.0
1979-07-12 17:23:56.270 ,0,0,0.,24.0,0.,24.0
1979-07-12 17:24:20.270 ,1,1,0.,24.0,0.,24.0
1979-07-12 17:24:44.270 ,1,0,0.,24.0,0.,24.0
1979-07-12 17:25:08.270 ,2,1,0.,24.0,0.,24.0
1979-07-12 17:25:32.270 ,2,0,0.,24.0,0.,24.0
1979-07-12 17:25:56.270 ,3,1,0.,24.0,0.,24.0
1979-07-12 17:26:20.270 ,3,0,0.,24.0,0.,24.0
1979-07-12 17:26:44.270 ,4,1,0.,24.0,0.,24.0
1979-07-12 17:27:08.270 ,4,0,0.,24.0,0.,24.0
1979-07-12 17:27:32.270 ,5,1,0.,24.0,0.,24.0
1979-07-12 17:27:56.270 ,5,0,0.,24.0,0.,24.0
1979-07-12 17:28:20.270 ,6,1,0.,24.0,0.,24.0
1979-07-12 17:28:44.270 ,6,0,0.,24.0,0.,24.0
1979-07-12 17:29:08.270 ,7,1,0.,24.0,0.,24.0
1979-07-12 17:29:32.270 ,7,0,0.,24.0,0.,24.0
1979-07-12 17:29:56.270 ,7,1,0.,24.0,0.,24.0
1979-07-12 17:30:20.270 ,7,0,0.,24.0,0.,24.0
1979-07-12 17:30:44.270 ,6,1,0.,24.0,0.,24.0
1979-07-12 17:31:08.270 ,6,0,0.,24.0,0.,24.0
1979-07-12 17:31:32.270 ,5,1,0.,24.0,0.,24.0
1979-07-12 17:31:56.270 ,5,0,0.,24.0,0.,24.0
1979-07-12 17:32:20.270 ,4,1,0.,24.0,0.,24.0
1979-07-12 17:32:44.270 ,4,0,0.,24.0,0.,24.0
1979-07-12 17:33:08.270 ,3,1,0.,24.0,0.,24.0
1979-07-12 17:33:32.270 ,3,0,0.,24.0,0.,24.0
1979-07-12 17:33:56.270 ,2,1,0.,24.0,0.,24.0
1979-07-12 17:34:20.270 ,2,0,0.,24.0,0.,24.0
1979-07-12 17:34:44.270 ,1,1,2.,24.0,0.,24.0
1979-07-12 17:35:08.270 ,1,0,0.,24.0,0.,24.0
1979-07-12 17:35:32.270 ,0,1,0.,24.0,0.,24.0
1979-07-12 17:35:56.270 ,0,0,0.,24.0,0.,24.0
1979-07-12 17:36:20.270 ,0,1,0.,24.0,0.,24.0
1979-07-12 17:36:44.270 ,0,0,0.,24.0,0.,24.0
1979-07-12 17:37:08.270 ,1,1,0.,24.0,0.,24.0
1979-07-12 17:37:32.270 ,1,0,1.,24.0,0.,24.0
1979-07-12 17:37:56.270 ,2,1,0.,24.0,0.,24.0
1979-07-12 17:38:20.270 ,2,0,0.,24.0,0.,24.0
1979-07-12 17:38:44.270 ,3,1,0.,24.0,0.,24.0
1979-07-12 17:39:08.270 ,3,0,0.,24.0,0.,24.0
1979-07-12 17:39:32.270 ,4,1,0.,24.0,0.,24.0
1979-07-12 17:39:56.270 ,4,0,1.,24.0,0.,24.0
1979-07-12 17:40:20.270 ,5,1,0.,24.0,0.,24.0
1979-07-12 17:40:44.270 ,5,0,1.,24.0,0.,24.0
1979-07-12 17:41:08.270 ,6,1,0.,24.0,0.,24.0
1979-07-12 17:41:32.270 ,6,0,0.,24.0,0.,24.0
1979-07-12 17:41:56.270 ,7,1,0.,24.0,0.,24.0
1979-07-12 17:42:20.270 ,7,0,0.,24.0,0.,24.0
1979-07-12 17:42:44.270 ,7,1,0.,24.0,0.,24.0
1979-07-12 17:43:08.270 ,7,0,0.,24.0,0.,24.0
1979-07-12 17:43:32.270 ,6,1,0.,24.0,0.,24.0
1979-07-12 17:43:56.270 ,6,0,0.,24.0,0.,24.0
1979-07-12 17:44:20.270 ,5,1,0.,24.0,0.,24.0
1979-07-12 17:44:44.270 ,5,0,0.,24.0,0.,24.0
1979-07-12 17:45:08.270 ,4,1,0.,24.0,0.,24.0
1979-07-12 17:45:32.270 ,4,0,0.,24.0,0.,24.0
1979-07-12 17:45:56.270 ,3,1,0.,24.0,0.,24.0
1979-07-12 17:46:20.270 ,3,0,0.,24.0,0.,24.0
1979-07-12 17:46:44.270 ,2,1,0.,24.0,0.,24.0
1979-07-12 17:47:08.270 ,2,0,0.,24.0,0.,24.0
1979-07-12 17:47:32.270 ,1,1,0.,24.0,0.,24.0
1979-07-12 17:47:56.270 ,1,0,0.,24.0,0.,24.0
1979-07-12 17:48:20.270 ,0,1,0.,24.0,0.,24.0
1979-07-12 17:48:44.270 ,0,0,0.,24.0,0.,24.0
1979-07-12 17:49:08.270 ,0,1,0.,24.0,0.,24.0
1979-07-12 17:49:32.270 ,0,0,0.,24.0,0.,24.0
1979-07-12 17:49:56.270 ,1,1,0.,24.0,0.,24.0
1979-07-12 17:50:20.270 ,1,0,0.,24.0,0.,24.0
1979-07-12 17:50:44.270 ,2,1,0.,24.0,0.,24.0
1979-07-12 17:51:08.270 ,2,0,0.,24.0,0.,24.0
1979-07-12 17:51:32.270 ,3,1,0.,24.0,0.,24.0
1979-07-12 17:51:56.270 ,3,0,0.,24.0,0.,24.0
1979-07-12 17:52:20.270 ,4,1,1.,24.0,0.,24.0
1979-07-12 17:52:44.270 ,4,0,1.,24.0,0.,24.0
1979-07-12 17:53:08.270 ,5,1,0.,24.0,0.,24.0
1979-07-12 17:53:32.270 ,5,0,0.,24.0,0.,24.0
1979-07-12 17:53:56.270 ,6,1,0.,24.0,0.,24.0
1979-07-12 17:54:20.270 ,6,0,0.,24.0,0.,24.0
1979-07-12 17:54:44.270 ,7,0,0.,24.0,0.,24.0
1979-07-12 17:55:08.270 ,7,0,0.,24.0,0.,24.0
1979-07-12 17:55:32.270 ,3,1,0.,24.0,0.,24.0
1979-07-12 17:55:56.270 ,0,1,0.,24.0,0.,24.0
1979-07-12 17:56:20.270 ,4,1,0.,24.0,0.,24.0
1979-07-12 17:56:44.270 ,7,1,0.,24.0,0.,24.0
1979-07-12 17:57:08.270 ,3,1,1.,24.0,0.,24.0
1979-07-12 17:57:32.270 ,0,1,0.,24.0,0.,24.0
1979-07-12 17:57:56.270 ,4,1,0.,24.0,0.,24.0
1979-07-12 17:58:20.270 ,7,1,0.,24.0,0.,24.0
1979-07-12 17:58:44.270 ,3,1,0.,24.0,0.,24.0
1979-07-12 17:59:08.270 ,0,1,0.,24.0,0.,24.0
1979-07-12 17:59:32.270 ,4,1,0.,24.0,0.,24.0
1979-07-12 17:59:56.270 ,7,1,0.,24.0,0.,24.0
1979-07-12 18:00:20.270 ,3,1,0.,24.0,0.,24.0
